Flag for China Weather past 2 weeks in Zhengzhou, Henan, China

Now
43 °F

Passing clouds.


Feels Like: 39 °F
Forecast: 32 / 56 °F
Wind: 6 mph from Southeast

Location: Zhengzhou Airport

Current Time: Mar 5, 2015 at 3:08:31 PM

Latest Report: Mar 5, 2015 at 2:00 PM


Visibility: N/A

Pressure: 30.30 "Hg

Humidity: 19%

Dew point: 3 °F

Location of ZhengzhouLocation

Historic Weather in Zhengzhou — Graph

°F

Zhengzhou temperature yesterday

Maximum temperature yesterday: 43 °F (at 12:00 PM)
Minimum temperature yesterday: 34 °F (at 6:00 AM)
Average temperature yesterday: 39 °F

Past Weeks' High & Low Weather Summary

 TemperatureHumidityPressure
High59 °F (Feb 25, 1:00 PM)100% (Feb 21, 8:00 AM)30.45 "Hg (Feb 21, 8:00 AM)
Low27 °F (Feb 21, 5:00 AM)11% (Mar 1, 1:00 PM)29.80 "Hg (Mar 2, 4:00 PM)
Average42 °F51%30.19 "Hg
* Reported Feb 18 2:00 PM — Mar 5 2:00 PM, Zhengzhou, Weather by CustomWeather, © 2015

Note: Actual official high and low records may vary slightly from our data, if they occured in-between our weather recording intervals... More about our weather records

Advertising

Zhengzhou weather history for previous 24 hours

 ConditionsComfort  
Time TempWeatherWind HumidityBarometerVisibility
2:00 PM
Thu, Mar 5
43 °FPassing clouds.6 mph19%30.30 "HgN/A
1:00 PM43 °FPassing clouds.6 mph19%30.33 "HgN/A
12:00 PM41 °FSunny.3 mph22%30.36 "Hg10 mi
11:00 AM41 °FSunny.3 mph26%30.36 "Hg10 mi
10:00 AM39 °FPassing clouds.3 mph33%30.39 "HgN/A
9:00 AM37 °FPassing clouds.3 mph33%30.39 "HgN/A
8:00 AM37 °FPassing clouds.3 mph33%30.36 "HgN/A
6:00 AM36 °FClear.1 mph35%30.33 "Hg10 mi
5:00 AM37 °FClear.1 mph30%30.30 "Hg10 mi
4:00 AM37 °FClear.1 mph28%30.33 "Hg10 mi
3:00 AM37 °FClear.1 mph28%30.33 "Hg10 mi
2:00 AM39 °FClear.1 mph24%30.33 "Hg10 mi
1:00 AM39 °FClear.No wind24%30.36 "Hg10 mi
12:00 AM39 °FClear.1 mph26%30.36 "Hg10 mi
11:00 PM
Wed, Mar 4
39 °FClear.1 mph26%30.39 "Hg10 mi
10:00 PM39 °FClear.1 mph26%30.39 "Hg10 mi
9:00 PM39 °FClear.3 mph24%30.36 "Hg10 mi
8:00 PM39 °FClear.6 mph26%30.33 "Hg10 mi
6:00 PM41 °FPassing clouds.6 mph17%30.30 "HgN/A
5:00 PM43 °FPassing clouds.8 mph13%30.30 "HgN/A
4:00 PM43 °FSunny.8 mph13%30.30 "Hg10 mi
3:00 PM43 °FPassing clouds.8 mph13%30.30 "HgN/A
Weather by CustomWeather, © 2015

See weather overviewHow to use our weather pages